Regional Weather Roundup
Issued by NWS

Home | Current Version | Previous Version | Text Only | Print | Product List | Glossary Off
Versions: 1 2 3 4 5 6 7 8 9 10 11 12 13 14 15 16 17 18 19 20 21 22 23 24 25 26 27 28 29 30 31 32 33 34 35 36 37 38 39 40 41 42 43 44 45 46 47 48 49 50

000
ASUS43 KIND 281159
RWRIN

WEATHER ROUNDUP FOR INDIANA
NATIONAL WEATHER SERVICE INDIANAPOLIS IN
700 AM EST SAT FEB 28 2015

NOTE: "FAIR" INDICATES FEW OR NO CLOUDS BELOW 12,000 FEET WITH NO
SIGNIFICANT WEATHER AND/OR OBSTRUCTIONS TO VISIBILITY.

* - STATION DOES NOT REPORT WEATHER SUCH AS PRECIPITATION OR FOG.

+ - STATION NOT QUALITY CONTROLLED BY THE NATIONAL WEATHER SERVICE.
    USE DATA WITH CAUTION...ESPECIALLY DEWPOINT AND RELATIVE
    HUMIDITY OBSERVATIONS.

INZ001>003-010>013-019-020-281300-
NORTHWEST INDIANA

CITY           SKY/WX    TMP DP  RH WIND       PRES   REMARKS
GARY /AIRPORT/ PTCLDY    -8 -15  71 CALM      30.72R
VALPARAISO     NOT AVBL

$$

LMZ046-743>745-281300-
SOUTHERN LAKE MICHIGAN

STATION/POSITION TIME  TEMP WIND        PRES
                       AIR  DIR/SP/G
                 (UTC) (F)  (DEG/KT/KT) (MB)
MICHIGAN CITY    1100    2  140/  5/  6   N/A

$$

INZ004-005-014>016-021>024-281300-
NORTH CENTRAL INDIANA

CITY           SKY/WX    TMP DP  RH WIND       PRES   REMARKS
GOSHEN         MOCLDY    -9 -16  71 CALM      30.70R
6HR MIN TEMP: -11; 6HR MAX TEMP:  -3;

SOUTH BEND     PTCLDY    -7 -15  68 CALM      30.70R
6HR MIN TEMP:  -7; 6HR MAX TEMP:   0;


$$

INZ006>009-017-018-025>027-281300-
NORTHEAST INDIANA

CITY           SKY/WX    TMP DP  RH WIND       PRES   REMARKS
ANGOLA *+      CLEAR    -11 -18  70 CALM      30.68S
FORT WAYNE     MOCLDY     1  -4  79 CALM      30.72R
6HR MIN TEMP:  -2; 6HR MAX TEMP:   4;


$$

INZ028-029-035-036-043>045-051>053-281300-
WEST CENTRAL INDIANA

CITY           SKY/WX    TMP DP  RH WIND       PRES   REMARKS
GREENCASTLE +  CLOUDY    10   0  61 E5        30.68R WCI   2
LAFAYETTE      CLOUDY     6  -1  73 E5        30.72R WCI  -3
6HR MIN TEMP:  -1; 6HR MAX TEMP:   7;

TERRE HAUTE    CLOUDY    12   2  64 CALM      30.70R
6HR MIN TEMP:   3; 6HR MAX TEMP:  12;


$$

INZ030>032-037>040-046>048-054>057-064-065-281300-
CENTRAL INDIANA

CITY           SKY/WX    TMP DP  RH WIND       PRES   REMARKS
COLUMBUS       MOCLDY     7   1  78 CALM      30.71
GREENWOOD *+   MOCLDY    10  -2  56 E5        30.69R WCI   2
INDIANAPOLIS   CLOUDY    12   1  61 E6        30.67R WCI   3
6HR MIN TEMP:   7; 6HR MAX TEMP:  12;

-EAGLE CREEK   CLOUDY    10   2  69 E3        30.68R
6HR MIN TEMP:   3; 6HR MAX TEMP:  10;

KOKOMO *+      PTCLDY     3  -2  78 CALM      30.71R
6HR MIN TEMP:  -2; 6HR MAX TEMP:   3;

MT COMFORT *+  MOCLDY     7  -4  61 E3        30.68R
SHELBYVILLE    CLOUDY    10   1  67 E3        30.69R
6HR MIN TEMP:   0; 6HR MAX TEMP:  10;


$$

INZ033-034-041-042-049-050-058-059-281300-
EAST CENTRAL INDIANA

CITY           SKY/WX    TMP DP  RH WIND       PRES   REMARKS
MUNCIE         CLOUDY     2  -4  76 CALM      30.68S
6HR MIN TEMP:  -6; 6HR MAX TEMP:   2;


$$

INZ060-061-067>069-081>083-085>088-281300-
SOUTHWEST INDIANA

CITY           SKY/WX    TMP DP  RH WIND       PRES   REMARKS
EVANSVILLE     CLOUDY    21   8  57 E7        30.67R WCI  12
6HR MIN TEMP:  18; 6HR MAX TEMP:  21;

HUNTINGBURG *+ CLOUDY    18   5  57 NE7       30.67R WCI   8
6HR MIN TEMP:  16; 6HR MAX TEMP:  18;


$$

INZ062-063-066-070>080-084-089>092-281300-
SOUTH CENTRAL AND SOUTHEAST INDIANA

CITY           SKY/WX    TMP DP  RH WIND       PRES   REMARKS
BLOOMINGTON    CLOUDY    13   2  61 E6        30.67R WCI   4
6HR MIN TEMP:   1; 6HR MAX TEMP:  13;

SEYMOUR +      MOCLDY    12   1  62 CALM      30.70R

$$




USA.gov is the U.S. government's official web portal to all federal, state and local government web resources and services.